Content
SEND FEEDBACK

Daily
Averages
Monthly
Summary
Philippines

QUEZON CITY, PHILIPPINES


Home > Asia > Philippines
Elevation: 46 meters     Latitude: 14 39N     Longitude: 121 03E

WEATHER
 
SELECT A DAY
Number of Records: 172,756;   Date Range: 7/1/96 - 9/18/14
 
SHARE

PRINT THIS DATA

[ ← Previous Day ]
WEATHER ALMANAC - 31 DECEMBER, 2012
[ Next Day → ]
[ °F ]   °C
Weather ElementAverageHighLow
Temperature27.3 °C30 °C (2:00 pm)25 °C (6:00 am)
Dewpoint21.9 °C24 °C (1:00 am)20 °C (6:00 pm)
Humidity71.2 %89 % (2:00 am)48 % (2:00 pm)
Barometer1010.8 hPa1013.2 hPa (9:00 am)1009.1 hPa (2:00 pm)
Wind Speed7.2 km/h13 km/h (6:00 pm)
Weather ElementAverage
Visibility9.8 km
Wind DirectionE (85.5 °)

Weather ElementTotal
Precipitation---
Cooling Degree Days9.2 (Base 18.3)
Growing Degree Days17.5 (Base 10)
Averaged from 30 records on 31 December, 2012
WEATHER CONDITIONS BREAKOUT
WIND DIRECTION BREAKOUT
WEATHER BY HOUR - 31 DECEMBER, 2012
[ °F ]   °C
Local TimeTemperatureDewpointHumidityBarometerVisibilityWind DirectionWind SpeedGust SpeedPrecipitationEventsConditions
1:00 AM27 °C24 °C84 %1010.2 hPa10 kmNE (40°)9.3 km/hMostly Cloudy
2:00 AM26.1 °C23.9 °C85 %1010.2 hPa9.7 kmNE (50°)7.2 km/hHaze
2:00 AM26 °C24 °C89 %1010.2 hPa10 kmNE (50°)9.3 km/hPartly Cloudy
3:00 AM26 °C24 °C89 %1010.2 hPa10 kmNNE (30°)7.4 km/hScattered Clouds
4:00 AM26 °C23 °C83 %1010.2 hPa10 kmENE (70°)5.6 km/hPartly Cloudy
5:00 AM25.6 °C22.2 °C77 %1010.5 hPa9.7 kmEast (90°)3.5 km/hHaze
5:00 AM26 °C22 °C78 %1010.2 hPa10 kmEast (90°)5.6 km/hPartly Cloudy
6:00 AM25 °C23 °C89 %1011.2 hPa10 kmCalmPartly Cloudy
7:00 AM26 °C23 °C83 %1011.2 hPa10 kmNW (310°)5.6 km/hMostly Cloudy
8:00 AM26.7 °C23.3 °C78 %1012.5 hPa9.7 kmNNE (20°)10.8 km/hHaze
8:00 AM26 °C24 °C89 %1012.2 hPa10 kmNNE (20°)11.1 km/hMostly Cloudy
9:00 AM27 °C24 °C84 %1013.2 hPa10 kmNNE (30°)11.1 km/hMostly Cloudy
10:00 AM28 °C22 °C70 %1012.2 hPa10 kmNE (40°)5.6 km/hMostly Cloudy
11:00 AM28.9 °C22.2 °C59 %1012.2 hPa9.7 kmENE (60°)7.2 km/hHaze
11:00 AM29 °C22 °C66 %1012.2 hPa10 kmENE (60°)7.4 km/hOvercast
12:00 PM29 °C22 °C66 %1010.2 hPa10 kmNE (40°)5.6 km/hMostly Cloudy
2:00 PM30 °C20.6 °C48 %1009.8 hPa9.7 kmESE (110°)10.8 km/hHaze
2:00 PM30 °C21 °C58 %1009.1 hPa10 kmESE (110°)11.1 km/hMostly Cloudy
3:00 PM30 °C22 °C62 %1009.1 hPa10 kmNE (50°)9.3 km/hMostly Cloudy
4:00 PM29 °C21 °C62 %1009.1 hPa10 kmVariable3.7 km/hMostly Cloudy
5:00 PM28.9 °C20.6 °C53 %1009.8 hPa9.7 kmWNW (290°)10.8 km/hHaze
5:00 PM29 °C21 °C62 %1009.1 hPa10 kmWNW (290°)11.1 km/hMostly Cloudy
6:00 PM28 °C20 °C62 %1010.2 hPa10 kmEast (90°)13 km/hMostly Cloudy
7:00 PM27 °C20 °C65 %1011.2 hPa10 kmESE (110°)11.1 km/hMostly Cloudy
8:00 PM27.2 °C20 °C56 %1011.5 hPa9.7 kmESE (120°)7.2 km/hHaze
8:00 PM27 °C20 °C65 %1011.2 hPa10 kmESE (120°)9.3 km/hScattered Clouds
9:00 PM27 °C20 °C65 %1011.2 hPa10 kmSouth (190°)9.3 km/hScattered Clouds
10:00 PM26 °C20 °C69 %1011.2 hPa10 kmCalmScattered Clouds
11:00 PM26.1 °C20.6 °C65 %1011.9 hPa9.7 kmCalmHaze
11:00 PM26 °C21 °C74 %1011.2 hPa10 kmCalmScattered Clouds
Hourly data recorded from RPLL, located 0 kilometers away from Quezon City, Philippines







STORIES FROM OUR PARTNERS